Location: *
(45.1961°N, 1.9694°E)
Time: 10:26:54
(UTC+00:00)

Cosmos 2298 Rocket - Pass Details

Date: 25 August 2019
Orbit: 775 x 784 km, 74.0° (Epoch: 18 September)

Event Time Altitude Azimuth Distance (km) Brightness Sun altitude
Exits shadow 20:53:39 21° 192° (SSW) 1,717 5.5 -21.0°
Maximum altitude 20:57:19 78° 109° (ESE) 804 3.9 -21.4°
Drops below altitude 10° 21:02:39 10° 24° (NNE) 2,349 6.7 -22.1°
Sets 21:05:03 0° 23° (NNE) 3,282 7.5 -22.4°
